Location: Unspecified
(0.0000°N, 0.0000°E)
Time: 08:49:08
(UTC+00:00)

NOSS 8 (A) - Visible Passes

Search period start: 17 October 2019 00:00
Search period end: 27 October 2019 00:00
Orbit: 387 x 1766 km, 63.3° (Epoch: 29 August)

Date Brightness Start Highest point End Pass type
(mag) Time Alt. Az. Time Alt. Az. Time Alt. Az.
24 Oct 7.8 19:50:47 10° S 19:52:17 16° S 19:52:17 16° S visible
25 Oct 7.8 19:00:28 10° SE 19:01:00 11° SE 19:01:00 11° SE visible
25 Oct 8.4 20:47:17 10° SW 20:47:49 12° SW 20:47:49 12° SW visible
26 Oct 7.0 19:53:25 10° SSW 19:56:35 29° S 19:56:35 29° S visible
